Voltar ao catálogo

SL-8 DEB *

AtivoLEO
NORAD 13498·DEBRIS·🇷🇺 Russia

Lançado May 7, 1981 de Plesetsk Cosmodrome

Loading…

Próximas Passagens (próximas 24 horas)

TLE

AtualizadoSource: Space-Track

Época: Sep 14, 2026, 02:33 UTC

1 13498U 81041C   26257.10688677  .00001619  00000-0  25980-3 0  9998
2 13498  74.0128 125.2974 0009366 200.5888 313.5927 14.72536879414151

Acompanhe SL-8 DEB * em tempo real com AllMySat

Download on the App Store